Location: NCO
(38.4404°N, 77.1340°W)
Time: 23:44:15
(UTC-05:00)

N. Korean satellite - Visible Passes

Search period start: 18 November 2018 00:00
Search period end: 28 November 2018 00:00
Orbit: 457 x 511 km, 97.2° (Epoch: 18 November)

Date Brightness Start Highest point End Pass type
(mag) Time Alt. Az. Time Alt. Az. Time Alt. Az.
18 Nov 9.8 05:35:17 10° NE 05:37:21 15° E 05:39:26 10° SE visible
18 Nov 6.5 17:41:26 10° SSE 17:45:03 87° ENE 17:48:38 10° N visible
19 Nov 7.0 17:17:15 10° SE 17:20:37 38° ENE 17:23:56 10° N visible
19 Nov 10.2 18:53:11 10° WSW 18:54:12 11° W 18:55:13 10° WNW visible
20 Nov 7.0 06:18:31 10° NNE 06:21:56 63° E 06:25:20 10° S visible
20 Nov 9.2 18:26:41 10° SSW 18:29:33 22° W 18:32:24 10° NW visible
21 Nov 8.9 05:54:22 10° NE 05:57:22 27° E 06:00:21 10° SSE visible
21 Nov 7.7 18:01:30 10° S 18:04:58 47° W 18:08:25 10° NNW visible
22 Nov 9.9 05:30:57 10° ENE 05:32:43 13° E 05:34:28 10° SE visible
22 Nov 6.4 17:36:53 10° SSE 17:40:28 75° ENE 17:43:59 10° N visible
23 Nov 7.2 17:12:48 10° SE 17:16:01 33° ENE 17:19:13 10° N visible
23 Nov 10.0 18:48:02 10° WSW 18:49:33 12° W 18:51:05 10° WNW visible
24 Nov 7.4 06:13:54 10° NNE 06:17:18 54° E 06:20:41 10° S visible
24 Nov 9.0 18:21:56 10° SSW 18:24:54 25° W 18:27:52 10° NW visible
25 Nov 9.1 05:49:50 10° NE 05:52:42 24° E 05:55:35 10° SSE visible
25 Nov 7.3 17:56:51 10° S 18:00:20 54° W 18:03:47 10° NNW visible
26 Nov 10.0 05:26:42 10° ENE 05:28:02 12° E 05:29:23 10° ESE visible
26 Nov 6.4 17:32:20 10° SSE 17:35:50 64° ENE 17:39:18 10° N visible
27 Nov 9.9 18:43:00 10° SW 18:44:53 14° W 18:46:45 10° WNW visible
